FW4301 Weather Reports


Display with metric or nautical units.
time (UTC)temp
F
wind
direction
speed
MPH
gust
MPH
rain 1hr
in
rain 24hr
in
rain mn
in
humidity
%
barometer
mb
20260903190530 87 0 0.0 4.0 0.00 0.00 0.00 54 1013.0
20260903190053 87 0 0.0 4.0 0.00 0.00 0.00 54 1013.0
20260903185530 87 16 0.0 4.0 0.00 0.00 0.00 54 1013.1
20260903185119 87 0 0.0 3.0 0.00 0.00 0.00 55 1013.3
20260903184600 87 0 0.0 3.0 0.00 0.00 0.00 55 1013.2
20260903184027 87 16 0.0 2.0 0.00 0.00 0.00 56 1013.3
20260903183529 86 0 0.0 2.0 0.00 0.00 0.00 57 1013.5
20260903183055 86 0 0.0 2.0 0.00 0.00 0.00 58 1013.5
20260903182530 86 0 0.0 2.0 0.00 0.00 0.00 57 1013.7
20260903182030 85 0 0.0 1.0 0.00 0.00 0.00 58 1013.8
20260903181551 85 0 0.0 3.0 0.00 0.00 0.00 58 1013.8
20260903181027 85 0 0.0 3.0 0.00 0.00 0.00 58 1013.9
20260903180530 85 0 0.0 3.0 0.00 0.00 0.00 58 1013.9
20260903180101 85 0 0.0 4.0 0.00 0.00 0.00 58 1014.1
20260903175529 85 0 0.0 4.0 0.00 0.00 0.00 58 1014.1
20260903175029 85 0 0.0 3.0 0.00 0.00 0.00 58 1014.2
20260903174548 85 0 0.0 3.0 0.00 0.00 0.00 58 1014.2
20260903174028 86 0 0.0 2.0 0.00 0.00 0.00 57 1014.2
20260903173530 86 0 0.0 2.0 0.00 0.00 0.00 58 1014.3
20260903173056 86 0 0.0 1.0 0.00 0.00 0.00 58 1014.4
20260903172531 86 0 0.0 0.0 0.00 0.00 0.00 58 1014.4
20260903172029 86 0 0.0 1.0 0.00 0.00 0.00 57 1014.4
20260903171600 86 0 0.0 2.0 0.00 0.00 0.00 57 1014.4
20260903171029 86 0 0.0 2.0 0.00 0.00 0.00 57 1014.4
20260903170530 86 0 0.0 3.0 0.00 0.00 0.00 57 1014.4
20260903170050 86 0 0.0 3.0 0.00 0.00 0.00 57 1014.4
20260903165529 86 0 0.0 3.0 0.00 0.00 0.00 56 1014.4
20260903165030 86 0 0.0 3.0 0.00 0.00 0.00 56 1014.3
20260903164555 86 0 0.0 2.0 0.00 0.00 0.00 56 1014.4
20260903164029 86 0 0.0 4.0 0.00 0.00 0.00 57 1014.4
20260903163528 86 0 0.0 4.0 0.00 0.00 0.00 56 1014.4
20260903163049 86 16 0.0 4.0 0.00 0.00 0.00 56 1014.4
20260903162530 86 0 0.0 5.0 0.00 0.00 0.00 56 1014.3
20260903162030 86 0 0.0 5.0 0.00 0.00 0.00 56 1014.3
20260903161551 86 0 0.0 2.0 0.00 0.00 0.00 56 1014.2
20260903161027 86 0 0.0 2.0 0.00 0.00 0.00 57 1014.2
20260903160529 86 0 0.0 1.0 0.00 0.00 0.00 58 1014.1
20260903160049 86 0 0.0 1.0 0.00 0.00 0.00 57 1014.3
20260903155529 86 0 0.0 2.0 0.00 0.00 0.00 57 1014.2
20260903155029 85 0 0.0 2.0 0.00 0.00 0.00 58 1014.1
20260903154557 85 0 0.0 3.0 0.00 0.00 0.00 58 1014.1
20260903154029 85 0 0.0 3.0 0.00 0.00 0.00 58 1014.1
20260903153533 85 0 0.0 2.0 0.00 0.00 0.00 58 1014.1
20260903153053 85 0 0.0 2.0 0.00 0.00 0.00 58 1014.1
20260903152530 85 0 0.0 1.0 0.00 0.00 0.00 58 1014.1
20260903152032 85 0 0.0 1.0 0.00 0.00 0.00 58 1014.2
20260903151601 84 0 0.0 1.0 0.00 0.00 0.00 58 1014.1
20260903151030 84 0 0.0 0.0 0.00 0.00 0.00 58 1014.0
20260903150530 84 0 0.0 1.0 0.00 0.00 0.00 58 1013.9
20260903150100 84 0 0.0 2.0 0.00 0.00 0.00 59 1013.8
20260903145529 84 0 0.0 2.0 0.00 0.00 0.00 59 1013.9
20260903145029 84 0 0.0 0.0 0.00 0.00 0.00 59 1013.8
20260903144551 83 0 0.0 1.0 0.00 0.00 0.00 59 1013.9
20260903144029 83 0 0.0 1.0 0.00 0.00 0.00 59 1013.8
20260903143529 83 0 0.0 1.0 0.00 0.00 0.00 59 1013.8
20260903143103 83 0 0.0 0.0 0.00 0.00 0.00 59 1013.9
20260903142529 83 0 0.0 0.0 0.00 0.00 0.00 59 1013.8
20260903142027 82 0 0.0 0.0 0.00 0.00 0.00 60 1013.7
20260903141550 82 0 0.0 0.0 0.00 0.00 0.00 60 1013.8
20260903141029 82 0 0.0 0.0 0.00 0.00 0.00 60 1013.9
20260903140527 81 0 0.0 0.0 0.00 0.00 0.00 60 1013.9
20260903140051 81 0 0.0 0.0 0.00 0.00 0.00 61 1014.0
20260903135527 80 0 0.0 0.0 0.00 0.00 0.00 62 1013.9
20260903135030 80 0 0.0 0.0 0.00 0.00 0.00 62 1013.9
20260903134610 79 0 0.0 0.0 0.00 0.00 0.00 63 1013.8
20260903134029 79 0 0.0 0.0 0.00 0.00 0.00 64 1013.6
20260903133532 78 0 0.0 0.0 0.00 0.00 0.00 64 1013.6
20260903133056 78 0 0.0 0.0 0.00 0.00 0.00 65 1013.6
20260903132528 77 0 0.0 0.0 0.00 0.00 0.00 65 1013.6
20260903132029 77 0 0.0 0.0 0.00 0.00 0.00 65 1013.6
20260903131555 77 0 0.0 0.0 0.00 0.00 0.00 65 1013.7
20260903131028 77 0 0.0 0.0 0.00 0.00 0.00 65 1013.7
20260903130532 76 0 0.0 0.0 0.00 0.00 0.00 65 1013.7
20260903130058 76 0 0.0 0.0 0.00 0.00 0.00 65 1013.7
20260903125527 76 0 0.0 0.0 0.00 0.00 0.00 65 1013.6
20260903125027 76 0 0.0 0.0 0.00 0.00 0.00 65 1013.6
20260903124551 76 0 0.0 0.0 0.00 0.00 0.00 65 1013.5
20260903124027 76 0 0.0 0.0 0.00 0.00 0.00 65 1013.5
20260903123532 76 0 0.0 0.0 0.00 0.00 0.00 65 1013.5
20260903123050 76 0 0.0 0.0 0.00 0.00 0.00 65 1013.5
20260903122530 76 0 0.0 0.0 0.00 0.00 0.00 66 1013.4
20260903122030 76 0 0.0 0.0 0.00 0.00 0.00 66 1013.5
20260903121557 75 0 0.0 0.0 0.00 0.00 0.00 66 1013.3
20260903121030 75 0 0.0 0.0 0.00 0.00 0.00 66 1013.2
20260903120529 75 0 0.0 0.0 0.00 0.00 0.00 66 1013.3
20260903120054 75 0 0.0 0.0 0.00 0.00 0.00 66 1013.3
20260903115527 75 0 0.0 0.0 0.00 0.00 0.00 66 1013.3
20260903115031 75 0 0.0 0.0 0.00 0.00 0.00 66 1013.3
20260903114550 75 0 0.0 0.0 0.00 0.00 0.00 66 1013.2
20260903114029 75 0 0.0 0.0 0.00 0.00 0.00 65 1013.3
20260903113529 75 0 0.0 0.0 0.00 0.00 0.00 65 1013.2
20260903113050 75 0 0.0 0.0 0.00 0.00 0.00 65 1013.2
20260903112530 75 0 0.0 0.0 0.00 0.00 0.00 65 1013.3
20260903112030 75 0 0.0 0.0 0.00 0.00 0.00 65 1013.1
20260903111549 75 0 0.0 0.0 0.00 0.00 0.00 65 1013.2
20260903111029 75 0 0.0 0.0 0.00 0.00 0.00 65 1013.1
20260903110530 75 0 0.0 0.0 0.00 0.00 0.00 65 1013.1
20260903110058 75 0 0.0 0.0 0.00 0.00 0.00 65 1013.1
20260903105529 75 0 0.0 0.0 0.00 0.00 0.00 65 1013.2
20260903105030 75 0 0.0 0.0 0.00 0.00 0.00 65 1013.1
20260903104601 75 0 0.0 0.0 0.00 0.00 0.00 65 1013.2
20260903104026 75 0 0.0 0.0 0.00 0.00 0.00 65 1013.1
20260903103529 75 0 0.0 0.0 0.00 0.00 0.00 65 1013.0
20260903103058 75 0 0.0 0.0 0.00 0.00 0.00 65 1013.0
20260903102529 75 0 0.0 0.0 0.00 0.00 0.00 65 1013.1
20260903102031 75 0 0.0 0.0 0.00 0.00 0.00 65 1013.1
20260903101557 75 0 0.0 0.0 0.00 0.00 0.00 65 1013.1
20260903101030 75 0 0.0 0.0 0.00 0.00 0.00 65 1013.1
20260903100527 75 0 0.0 0.0 0.00 0.00 0.00 65 1013.0
20260903100053 75 0 0.0 0.0 0.00 0.00 0.00 65 1013.1
20260903095530 75 0 0.0 0.0 0.00 0.00 0.00 65 1013.0
20260903095029 75 0 0.0 0.0 0.00 0.00 0.00 65 1013.0
20260903094558 75 0 0.0 0.0 0.00 0.00 0.00 65 1013.0
20260903094030 75 0 0.0 0.0 0.00 0.00 0.00 65 1013.0
20260903093529 75 0 0.0 0.0 0.00 0.00 0.00 65 1013.1
20260903093105 75 0 0.0 0.0 0.00 0.00 0.00 65 1013.1
20260903092533 75 0 0.0 0.0 0.00 0.00 0.00 65 1013.0
20260903092031 75 0 0.0 0.0 0.00 0.00 0.00 65 1013.0
20260903091607 75 0 0.0 0.0 0.00 0.00 0.00 65 1013.0
20260903091031 75 0 0.0 0.0 0.00 0.00 0.00 65 1013.0
20260903090527 75 0 0.0 0.0 0.00 0.00 0.00 65 1013.0
20260903090053 75 0 0.0 0.0 0.00 0.00 0.00 64 1012.9
20260903085529 75 0 0.0 0.0 0.00 0.00 0.00 64 1013.0
20260903085029 75 0 0.0 0.0 0.00 0.00 0.00 64 1012.9
20260903084550 75 0 0.0 0.0 0.00 0.00 0.00 64 1013.0
20260903084030 75 0 0.0 0.0 0.00 0.00 0.00 64 1013.0
20260903083531 75 0 0.0 0.0 0.00 0.00 0.00 64 1012.9
20260903083048 76 0 0.0 0.0 0.00 0.00 0.00 64 1012.7
20260903082532 76 0 0.0 0.0 0.00 0.00 0.00 64 1012.7
20260903082034 76 0 0.0 0.0 0.00 0.00 0.00 64 1012.8
20260903081557 76 0 0.0 0.0 0.00 0.00 0.00 64 1012.9
20260903081030 76 0 0.0 0.0 0.00 0.00 0.00 64 1012.9
20260903080527 76 0 0.0 0.0 0.00 0.00 0.00 64 1013.0
20260903080053 76 0 0.0 0.0 0.00 0.00 0.00 63 1013.0
20260903075535 76 0 0.0 0.0 0.00 0.00 0.00 63 1012.9
20260903075032 76 0 0.0 0.0 0.00 0.00 0.00 63 1012.9
20260903074555 76 0 0.0 0.0 0.00 0.00 0.00 63 1012.9
20260903074030 76 0 0.0 0.0 0.00 0.00 0.00 63 1012.9
20260903073530 76 0 0.0 0.0 0.00 0.00 0.00 63 1012.9
20260903073101 77 0 0.0 0.0 0.00 0.00 0.00 62 1012.9
20260903072527 77 0 0.0 0.0 0.00 0.00 0.00 62 1013.0
20260903072031 77 0 0.0 0.0 0.00 0.00 0.00 62 1013.0
20260903071556 77 0 0.0 0.0 0.00 0.00 0.00 62 1013.1
20260903071030 77 0 0.0 0.0 0.00 0.00 0.00 62 1013.1
20260903070529 77 0 0.0 0.0 0.00 0.00 0.00 63 1013.2
20260903070051 77 0 0.0 0.0 0.00 0.00 0.00 63 1013.1
20260903065531 77 0 0.0 0.0 0.00 0.00 0.00 63 1013.1
20260903065031 77 0 0.0 0.0 0.00 0.00 0.00 63 1013.1
20260903064556 77 0 0.0 0.0 0.00 0.00 0.00 62 1013.2
20260903064030 78 0 0.0 0.0 0.00 0.00 0.00 61 1013.1
20260903063529 78 0 0.0 0.0 0.00 0.00 0.00 61 1013.1
20260903063055 78 0 0.0 0.0 0.00 0.00 0.00 61 1013.1
20260903062527 78 0 0.0 0.0 0.00 0.00 0.00 61 1013.1
20260903062030 78 0 0.0 0.0 0.00 0.00 0.00 60 1013.1
20260903061556 78 0 0.0 0.0 0.00 0.00 0.00 60 1013.3
20260903061029 79 0 0.0 0.0 0.00 0.00 0.00 60 1013.4
20260903060530 79 0 0.0 0.0 0.00 0.00 0.00 60 1013.5
20260903060053 79 0 0.0 0.0 0.00 0.00 0.00 60 1013.5
20260903055530 79 0 0.0 0.0 0.00 0.00 0.00 60 1013.6
20260903055027 79 0 0.0 0.0 0.00 0.00 0.00 59 1013.6
20260903054556 79 0 0.0 0.0 0.00 0.00 0.00 59 1013.6
20260903054030 80 0 0.0 0.0 0.00 0.00 0.00 59 1013.6
20260903053530 80 0 0.0 0.0 0.00 0.00 0.00 59 1013.7
20260903053055 80 0 0.0 0.0 0.00 0.00 0.00 58 1013.7
20260903052530 80 0 0.0 0.0 0.00 0.00 0.00 58 1013.7
20260903052031 80 0 0.0 0.0 0.00 0.00 0.00 58 1013.7
20260903051553 80 0 0.0 0.0 0.00 0.00 0.00 57 1013.8
20260903051029 80 0 0.0 0.0 0.00 0.00 0.00 57 1013.7
20260903050529 81 0 0.0 0.0 0.00 0.00 0.00 57 1013.8
20260903050056 81 0 0.0 0.0 0.00 0.00 0.00 57 1013.8
20260903045530 81 0 0.0 0.0 0.00 0.00 0.00 56 1013.7
20260903045033 81 0 0.0 0.0 0.00 0.00 0.00 56 1013.7
20260903044555 81 0 0.0 0.0 0.00 0.00 0.00 56 1013.6
20260903044030 82 0 0.0 0.0 0.00 0.00 0.00 55 1013.6
20260903043529 82 0 0.0 0.0 0.00 0.00 0.00 55 1013.6
20260903043052 82 0 0.0 0.0 0.00 0.00 0.00 55 1013.6
20260903042527 82 0 0.0 0.0 0.00 0.00 0.00 54 1013.6
20260903042029 82 0 0.0 0.0 0.00 0.00 0.00 54 1013.5
20260903041547 82 0 0.0 0.0 0.00 0.00 0.00 54 1013.6
20260903041030 83 0 0.0 0.0 0.00 0.00 0.00 54 1013.6
20260903040529 83 0 0.0 0.0 0.00 0.00 0.00 53 1013.6
20260903040103 83 0 0.0 0.0 0.00 0.00 0.00 53 1013.5
20260903035529 83 0 0.0 0.0 0.00 0.00 0.00 53 1013.5
20260903035030 83 0 0.0 0.0 0.00 0.00 0.00 53 1013.4
20260903034550 84 0 0.0 0.0 0.00 0.00 0.00 53 1013.5
20260903034029 84 0 0.0 0.0 0.00 0.00 0.00 52 1013.5
20260903033529 84 0 0.0 0.0 0.00 0.00 0.00 52 1013.5
20260903033050 84 0 0.0 0.0 0.00 0.00 0.00 52 1013.5
20260903032530 84 0 0.0 0.0 0.00 0.00 0.00 52 1013.5
20260903032030 84 0 0.0 0.0 0.00 0.00 0.00 52 1013.5
20260903031554 85 0 0.0 0.0 0.00 0.00 0.00 51 1013.4
20260903031029 85 0 0.0 0.0 0.00 0.00 0.00 51 1013.4
20260903030529 85 0 0.0 0.0 0.00 0.00 0.00 51 1013.4
20260903030056 85 0 0.0 0.0 0.00 0.00 0.00 51 1013.3
20260903025531 86 0 0.0 0.0 0.00 0.00 0.00 51 1013.3
20260903025030 86 0 0.0 0.0 0.00 0.00 0.00 50 1013.3
20260903024553 86 0 0.0 0.0 0.00 0.00 0.00 50 1013.1
20260903024029 86 0 0.0 0.0 0.00 0.00 0.00 50 1013.1
20260903023529 87 0 0.0 0.0 0.00 0.00 0.00 49 1013.0
20260903023105 87 0 0.0 0.0 0.00 0.00 0.00 49 1012.9
20260903022530 87 0 0.0 0.0 0.00 0.00 0.00 49 1012.8
20260903022029 87 0 0.0 0.0 0.00 0.00 0.00 48 1012.7
20260903021549 88 0 0.0 0.0 0.00 0.00 0.00 48 1012.7
20260903021032 88 0 0.0 0.0 0.00 0.00 0.00 47 1012.7
20260903020530 88 0 0.0 0.0 0.00 0.00 0.00 47 1012.6
20260903020056 88 0 0.0 0.0 0.00 0.00 0.00 47 1012.5
20260903015533 89 0 0.0 0.0 0.00 0.00 0.00 46 1012.4
20260903015030 89 0 0.0 0.0 0.00 0.00 0.00 46 1012.4
20260903014551 89 0 0.0 0.0 0.00 0.00 0.00 45 1012.3
20260903014030 89 0 0.0 0.0 0.00 0.00 0.00 45 1012.2
20260903013529 90 0 0.0 0.0 0.00 0.00 0.00 44 1012.2
20260903013055 90 0 0.0 0.0 0.00 0.00 0.00 44 1012.1
20260903012530 90 0 0.0 0.0 0.00 0.00 0.00 44 1012.0
20260903012030 90 0 0.0 0.0 0.00 0.00 0.00 44 1012.0
20260903011556 90 0 0.0 0.0 0.00 0.00 0.00 43 1012.0
20260903011029 91 0 0.0 0.0 0.00 0.00 0.00 43 1012.1
20260903010534 91 0 0.0 0.0 0.00 0.00 0.00 42 1012.0
20260903010053 91 0 0.0 0.0 0.00 0.00 0.00 42 1011.9
20260903005528 92 0 0.0 0.0 0.00 0.00 0.00 41 1011.8
20260903005031 92 0 0.0 0.0 0.00 0.00 0.00 40 1011.8
20260903004547 93 0 0.0 0.0 0.00 0.00 0.00 40 1011.8
20260903004030 93 0 0.0 0.0 0.00 0.00 0.00 39 1011.8
20260903003531 94 0 0.0 0.0 0.00 0.00 0.00 38 1011.9
20260903003051 94 0 0.0 0.0 0.00 0.00 0.00 37 1011.9
20260903002538 95 0 0.0 0.0 0.00 0.00 0.00 36 1011.9
20260903002030 95 0 0.0 0.0 0.00 0.00 0.00 34 1011.9
20260903001557 96 0 0.0 0.0 0.00 0.00 0.00 33 1011.8
20260903001028 96 0 0.0 0.0 0.00 0.00 0.00 33 1011.7
20260903000534 97 0 0.0 0.0 0.00 0.00 0.00 32 1011.6
20260903000053 97 0 0.0 0.0 0.00 0.00 0.00 32 1011.6
20260902235528 97 0 0.0 0.0 0.00 0.00 0.00 32 1011.5
20260902235029 98 0 0.0 0.0 0.00 0.00 0.00 31 1011.4
20260902234551 98 0 0.0 0.0 0.00 0.00 0.00 32 1011.4
20260902234029 98 0 0.0 0.0 0.00 0.00 0.00 32 1011.4
20260902233528 99 0 0.0 0.0 0.00 0.00 0.00 31 1011.4
20260902233100 100 0 0.0 0.0 0.00 0.00 0.00 29 1011.4
20260902232531 102 0 0.0 0.0 0.00 0.00 0.00 28 1011.4
20260902232028 104 0 0.0 0.0 0.00 0.00 0.00 26 1011.4
20260902231604 107 0 0.0 0.0 0.00 0.00 0.00 22 1011.3
20260902231030 107 0 0.0 0.0 0.00 0.00 0.00 21 1011.2
20260902230527 108 0 0.0 0.0 0.00 0.00 0.00 21 1011.2
20260902225529 108 0 0.0 0.0 0.00 0.00 0.00 22 1011.2
20260902225027 109 0 0.0 0.0 0.00 0.00 0.00 21 1011.3
20260902224601 109 0 0.0 0.0 0.00 0.00 0.00 21 1011.2
20260902224028 109 0 0.0 0.0 0.00 0.00 0.00 22 1011.1
20260902223528 109 0 0.0 0.0 0.00 0.00 0.00 20 1011.1
20260902223054 109 0 0.0 0.0 0.00 0.00 0.00 22 1011.0
20260902222529 109 0 0.0 0.0 0.00 0.00 0.00 19 1011.1
20260902222031 109 0 0.0 0.0 0.00 0.00 0.00 21 1011.2
20260902221556 110 0 0.0 0.0 0.00 0.00 0.00 20 1011.3
20260902221028 110 0 0.0 0.0 0.00 0.00 0.00 19 1011.2
20260902220530 110 0 0.0 0.0 0.00 0.00 0.00 21 1011.3
20260902220055 110 0 0.0 0.0 0.00 0.00 0.00 20 1011.4
20260902215529 110 0 0.0 0.0 0.00 0.00 0.00 21 1011.5
20260902215028 110 0 0.0 0.0 0.00 0.00 0.00 21 1011.5
20260902214558 110 0 0.0 0.0 0.00 0.00 0.00 20 1011.5
20260902214028 110 0 0.0 0.0 0.00 0.00 0.00 23 1011.5
20260902213529 109 0 0.0 0.0 0.00 0.00 0.00 21 1011.6
20260902213056 109 0 0.0 0.0 0.00 0.00 0.00 23 1011.7
20260902212527 109 0 0.0 0.0 0.00 0.00 0.00 24 1011.7
20260902212027 110 0 0.0 0.0 0.00 0.00 0.00 22 1011.8
20260902211551 109 0 0.0 0.0 0.00 0.00 0.00 21 1011.8
20260902211028 109 0 0.0 0.0 0.00 0.00 0.00 24 1011.8
20260902210528 109 0 0.0 0.0 0.00 0.00 0.00 22 1011.8
20260902210048 109 0 0.0 0.0 0.00 0.00 0.00 20 1012.0
20260902205527 110 0 0.0 0.0 0.00 0.00 0.00 20 1012.0
20260902205029 110 0 0.0 0.0 0.00 0.00 0.00 23 1012.1
20260902204601 109 0 0.0 0.0 0.00 0.00 0.00 25 1012.1
20260902204030 110 0 0.0 0.0 0.00 0.00 0.00 22 1012.1
20260902203527 110 0 0.0 0.0 0.00 0.00 0.00 23 1012.1
20260902203059 110 0 0.0 0.0 0.00 0.00 0.00 24 1012.3
20260902202527 110 0 0.0 0.0 0.00 0.00 0.00 25 1012.2
20260902202028 110 0 0.0 0.0 0.00 0.00 0.00 20 1012.3
20260902201550 110 0 0.0 0.0 0.00 0.00 0.00 21 1012.5
20260902201028 110 0 0.0 0.0 0.00 0.00 0.00 22 1012.4
20260902200529 110 0 0.0 0.0 0.00 0.00 0.00 23 1012.5
20260902200052 110 0 0.0 0.0 0.00 0.00 0.00 24 1012.6
20260902195527 110 0 0.0 0.0 0.00 0.00 0.00 25 1012.7
20260902195028 110 0 0.0 0.0 0.00 0.00 0.00 24 1012.7
20260902194549 110 0 0.0 0.0 0.00 0.00 0.00 23 1012.8
20260902194029 109 0 0.0 0.0 0.00 0.00 0.00 25 1012.9
20260902193529 109 0 0.0 0.0 0.00 0.00 0.00 23 1013.0
20260902193057 109 0 0.0 0.0 0.00 0.00 0.00 24 1013.0
20260902192529 109 0 0.0 0.0 0.00 0.00 0.00 25 1013.2
20260902192031 110 0 0.0 0.0 0.00 0.00 0.00 22 1013.4
20260902191553 110 0 0.0 0.0 0.00 0.00 0.00 23 1013.4
20260902191030 110 0 0.0 0.0 0.00 0.00 0.00 22 1013.4